DELTA 1 DEB, 42563

Orbit data source: Space-Track

DELTA 1 DEB, 42563 is space debris in SSO originally from a launch on Sun, 23 Jul 1972 UTC launched from the Air Force Western Test Range (AFWTR). Debris objects in space refer to the collection of defunct objects orbiting the Earth. Examples of debris include non-operational satellites, rocket bodies, and fragments generated from explosions, collisions, or faulty payload assembly.

Loading next visibility...
Identifier
42563, 1972-058JW
Orbit
SSO
Country
Flag of USUS
Related business
Manufacturer
Unknown
Mission
Spacecraft
Bus & Motor
Unknown
Mass
Unknown
Launch date (UTC)
1972-07-23 (53 years ago)
Launch vehicle
Unknown
Launch site
Air Force Western Test Range (AFWTR)
Object type
Payload
Rocket body
Debris
Shape & HBR
Unknown shape, 0.1 m
Radar Cross Section
Small (<0.1 m²)

Expand to show TLE details & history
Last TLE update: 2 days ago

TLE from 2 days ago
0 DELTA 1 DEB
1 42563U 72058JW  25292.58653147  .00000469  00000-0  42763-3 0  9995
2 42563  98.8098  64.6518 0248303 340.7853  18.4059 13.74875408590642
Epoch: 2025-10-19T14:04Z
TLE epoch observation values (Epoch: 2025-10-19T14:04:36.319Z)
Latitude
0.00001°
Longitude
-174.8006°
Altitude
812 km
Speed
7.534 km/s
True Right ascension
04h 18m 36s
True Declination
0° 00' 00"
Sunlit
Object was in full shadow at epoch
Visualization orbit readout
Latitude
Unknown
Longitude
Unknown
Altitude
Unknown
Speed
Unknown
Apparent Right ascension
Unknown
Apparent Declination
Unknown
Sunlit
N/A
Visualization observer readout
Local Sidereal Time
23:05:12
Azimuth
Unknown
Elevation
Unknown
Doppler factor
Unknown
Orbital elements
Apogee altitude
1,162.029 km
Perigee altitude
796.652 km
Semi-major axis
7,357.478 km
Eccentricity
0.02483
Inclination
98.8098°
RAAN
64.6518°
Arg. of periapsis
340.7853°
True anomaly
19.33149°
Mean anomaly
18.4059°
Eccentric anomaly
18.86593°
Mean motion
3.43914 °/min
Orbital period
104.68 mins
BSTAR
0.00042763
Loading maneuver chart data...
Computing Atmospheric mass density...
Loading historical data...
Loading historical data...
Loading historical data...
Loading historical data...
Loading historical data...
Loading historical data...
Loading historical data...

Documentation

Showing up to 5 results
|